STARLINK-1728, 46582

Orbit data source: Space-Track

STARLINK-1728, 46582 is a payload satellite owned by SpaceX/Seattle (US) in LEO that was launched on Tue, 06 Oct 2020 UTC via an FALCON 9 launch vehicle from the Air Force Eastern Test Range (AFETR). Payload-class satellites include a variety of spacecraft equipped with specific instruments for various scientific and technological missions. These include communications satellites like Starlink; space stations such as the ISS; scientific satellites like the Hubble; Earth observation satellites from companies like Planet Labs, Umbra, and HawkEye 360; GPS; miniature CubeSats for education and research; and military/defense satellites.

Loading next visibility...
Identifier
46582, 2020-070BC
Orbit
LEO
Country
Flag of USUS
Related business
Manufacturer
SpaceX/Seattle
Mission
Partially operational Commercial Communications
Bus & Motor
STARLINK, Unknown motor
Mass
260 kg wet, ~248 kg dry
Launch date (UTC)
2020-10-06 (6 years ago)
Launch vehicle
FALCON 9
Launch site
Air Force Eastern Test Range (AFETR)
Object type
Payload
Rocket body
Debris
Shape & HBR
Box + 1 Pan, 10.1 m
Radar Cross Section
13.562 m², Large (>1 m²)

Expand to show TLE details & history
Last TLE update: 10 hours ago

TLE from 10 hours ago
0 STARLINK-1728
1 46582U 20070BC  26123.53653391  .00084894  00000-0  83798-3 0  9994
2 46582  53.0372 218.5981 0010116 345.4957  14.5766 15.65157176308786
Epoch: 2026-05-03T12:52Z
TLE epoch observation values (Epoch: 2026-05-03T12:52:36.529Z)
Latitude
-0°
Longitude
164.00722°
Altitude
367.078 km
Speed
7.694 km/s
True Right ascension
14h 34m 23s
True Declination
0° 00' 00"
Sunlit
Object was in full shadow at epoch
Visualization orbit readout
Latitude
Unknown
Longitude
Unknown
Altitude
Unknown
Speed
Unknown
Apparent Right ascension
Unknown
Apparent Declination
Unknown
Sunlit
N/A
Visualization observer readout
Local Sidereal Time
06:31:07
Azimuth
Unknown
Elevation
Unknown
Doppler factor
Unknown
Orbital elements
Apogee altitude
379.897 km
Perigee altitude
366.238 km
Semi-major axis
6,751.204 km
Eccentricity
0.00101
Inclination
53.0372°
RAAN
218.5981°
Arg. of periapsis
345.4957°
True anomaly
14.60581°
Mean anomaly
14.5766°
Eccentric anomaly
14.5912°
Mean motion
3.91265 °/min
Orbital period
92.01 mins
BSTAR
0.00083798
Loading maneuver chart data...
Computing Atmospheric mass density...

Documentation

Showing up to 5 results
|